Temperature
20 21 21 22 22 21 20 19 19 20 19 20 19 19 19 19 19 19 19 20 20 20 20 20 19 19 19 19 18 18 18 18 18 18 18 17 17 17 17 16 16 16 16 16
20 21 21 21 22 21 21 20 20 20 19 19 19 19 19 19 19 19 19 19 20 20 20 20 20 19 19 18 18 18 18 18 18 17 17 17 17 17 16 16 16 16 16 16
18 20 21 20 21 21 21 20 20 20 20 18 18 18 18 19 19 19 19 20 20 20 20 20 19 19 19 18 18 17 17 17 17 17 17 16 16 16 16 16 16 16 16 16
16 19 20 19 20 20 20 19 19 19 18 17 18 18 19 19 20 20 20 20 20 20 20 20 19 19 18 18 17 17 17 17 16 16 16 16 16 16 16 15 15 15 15 15
15 17 18 19 20 19 19 19 18 18 17 17 18 18 18 19 20 20 20 20 20 20 19 19 19 18 18 17 17 17 17 17 16 16 16 16 16 16 15 15 15 15 15 15
15 17 18 19 19 19 19 19 18 17 16 17 17 16 17 19 19 19 20 20 19 19 19 19 18 18 17 17 17 17 17 17 16 16 16 16 16 15 15 15 15 15 15 15
15 16 17 18 18 19 19 18 18 18 17 17 16 17 18 19 19 19 19 19 19 19 18 18 18 17 17 17 17 17 16 16 16 16 15 15 15 15 15 15 15 15 15 14
13 16 17 17 17 17 17 18 18 18 18 18 18 18 18 18 18 18 18 19 18 18 18 18 17 17 17 17 16 16 16 16 16 15 15 15 15 15 15 15 14 14 14 14
13 15 16 16 17 18 18 18 18 18 18 18 18 18 18 18 18 18 18 18 18 18 18 17 17 17 16 16 16 16 15 15 15 15 15 15 15 15 14 14 14 14 14 14
13 14 15 16 17 18 18 18 18 18 18 18 18 18 17 17 17 17 17 17 17 17 17 16 16 16 16 15 15 15 15 15 15 15 15 14 14 14 14 14 14 13 13 13
13 14 15 17 17 17 18 18 18 18 18 18 17 17 17 17 17 17 17 17 17 16 16 16 16 15 15 15 15 15 15 14 14 14 14 14 14 14 14 14 14 13 13 13
13 14 14 16 17 17 17 17 17 17 17 17 17 17 17 16 16 16 16 16 16 16 16 16 15 15 15 15 14 14 14 14 14 14 14 14 14 14 13 13 13 13 13 13
15 16 16 16 16 16 16 17 17 16 16 16 16 16 16 16 16 16 16 16 16 16 15 15 15 15 14 14 14 14 14 14 14 14 14 13 13 13 13 13 13 13 13 12
16 16 15 15 16 16 16 16 16 16 16 16 16 15 15 15 15 15 15 15 15 15 15 15 14 14 14 14 14 14 14 13 13 13 13 13 13 13 13 13 13 13 12 12
15 16 15 15 15 15 15 15 15 15 15 15 15 15 15 15 15 15 15 14 14 14 14 14 14 13 13 13 13 13 13 13 13 13 13 13 12 12 12 12 12 12 12 12
15 15 15 15 15 15 15 15 15 14 15 15 15 15 15 14 14 14 14 14 14 14 13 13 13 13 13 13 13 13 13 12 12 12 12 12 12 12 12 12 12 12 12 11
14 14 14 14 14 14 14 14 14 14 14 14 14 14 14 14 14 13 13 13 13 13 13 13 13 13 13 13 12 12 12 12 12 12 12 12 12 12 12 12 12 11 11 11
14 15 15 14 14 14 14 14 14 14 14 14 14 14 14 13 13 13 13 13 13 13 13 12 12 12 12 12 12 12 12 12 12 12 12 12 12 11 11 11 11 11 11 11
14 14 14 14 14 14 14 14 13 13 13 13 13 13 13 13 13 13 12 12 12 12 12 12 12 12 12 12 11 11 11 11 11 11 11 11 11 11 11 11 11 11 11 11
13 14 14 13 13 13 13 13 13 13 13 13 13 12 12 12 12 12 12 12 12 11 12 11 11 11 11 11 11 11 11 11 11 11 11 11 11 11 11 11 11 10 10 10
13 13 13 13 13 13 13 13 12 12 12 12 12 12 12 12 12 12 12 11 11 11 11 11 11 11 11 11 11 11 11 11 11 10 10 10 10 10 10 10 10 10 10 10
13 13 13 12 12 12 12 12 12 12 12 12 12 12 12 12 11 11 11 11 11 11 11 11 11 11 11 11 10 10 10 10 10 10 10 10 10 10 10 10 10 10 10 10
12 12 12 12 12 12 12 12 12 12 12 12 12 12 11 11 11 11 11 11 10 10 10 10 10 10 10 10 10 10 10 10 10 10 10 10 10 10 10 9 9 9 9 9
12 12 12 12 12 12 12 12 12 12 11 11 11 11 11 11 11 11 11 10 10 10 10 10 10 10 10 10 10 10 10 10 10 10 9 9 9 9 9 9 9 9 9 9
12 11 11 11 11 11 11 11 11 11 11 11 11 11 11 11 11 10 10 10 10 10 10 10 10 10 10 10 10 10 9 9 9 9 9 9 9 9 9 9 9 9 9 9
11 11 11 11 11 11 11 11 11 11 11 11 11 11 11 10 10 10 10 10 10 10 10 10 9 9 9 9 9 9 9 9 9 9 9 9 9 9 9 9 9 8 8 8
11 11 11 11 11 11 11 11 11 10 10 10 11 10 10 10 10 10 10 10 10 9 9 9 9 9 9 9 9 9 9 9 9 9 9 9 8 8 8 8 8 8 8 8
Wind_Speed
5 5 4 4 4 4 5 8 8 8 8 9 7 6 5 4 5 6 5 6 6 5 5 4 4 4 4 4 4 4 4 3 3 3 3 3 2 2 3 3 3 3 2 2
2 2 3 3 4 5 5 4 6 5 9 7 4 3 4 5 6 7 6 6 7 6 5 5 5 5 4 3 3 3 3 2 2 2 2 2 3 3 4 3 3 2 2 2
3 3 1 4 5 5 4 4 6 8 8 3 2 4 6 7 7 7 7 7 7 7 6 6 6 6 5 4 3 3 3 2 1 2 3 3 3 2 2 2 2 2 2 2
2 2 5 8 3 4 4 4 4 5 4 3 4 3 3 4 7 7 6 7 6 6 6 5 5 5 5 4 4 4 3 2 2 2 3 3 2 2 2 2 2 2 3 2
4 4 5 6 3 3 3 4 2 3 2 1 1 3 2 1 3 5 5 5 5 5 5 5 5 5 5 4 4 4 3 3 3 2 3 3 3 3 2 2 2 2 2 2
4 4 7 8 3 1 3 4 3 3 3 3 4 1 4 2 1 2 2 2 3 4 4 4 4 5 6 5 5 5 4 4 3 3 3 3 4 3 2 2 3 2 2 2
4 4 7 6 4 1 4 7 3 4 4 5 5 5 4 2 1 2 2 2 4 5 5 4 4 5 5 5 5 5 3 2 2 2 3 4 3 3 2 2 2 2 2 2
4 4 7 3 1 5 6 3 2 2 3 4 4 2 2 2 2 2 1 2 4 4 3 3 4 6 5 5 4 2 2 2 3 3 3 3 3 3 2 3 2 2 2 3
7 7 6 4 5 5 3 3 3 3 3 3 2 2 1 1 2 2 2 3 3 4 4 2 3 4 5 3 2 2 2 3 3 3 3 2 3 3 2 2 2 2 2 3
3 6 7 7 5 3 3 4 4 3 2 3 3 2 2 1 2 2 2 3 3 4 4 2 1 2 3 3 2 2 3 3 3 2 2 2 2 2 3 3 3 3 3 3
4 6 6 6 5 4 3 2 1 1 1 2 3 2 2 2 3 3 3 3 3 4 4 3 2 1 1 1 2 2 2 2 2 2 2 2 2 2 4 4 5 5 4 4
7 7 5 7 6 4 3 2 2 1 1 1 2 3 3 3 3 3 3 3 3 4 4 3 2 2 2 1 2 3 2 2 2 2 2 2 2 2 2 3 3 5 5 5
8 6 6 6 5 3 2 1 0 0 1 1 1 2 2 2 2 2 3 3 4 4 3 3 2 2 2 2 2 3 3 2 2 2 2 2 2 2 2 2 2 3 4 4
5 3 3 4 3 1 1 2 3 2 2 1 1 1 2 2 2 2 3 3 3 2 2 2 1 3 3 2 2 2 2 2 2 3 3 3 3 3 3 3 3 3 3 4
3 2 3 2 1 2 2 3 4 2 2 2 2 2 2 3 2 2 2 2 2 1 1 1 1 3 3 1 1 2 2 2 2 2 2 3 3 3 3 3 3 3 2 2
1 1 2 3 3 2 2 2 2 0 0 1 1 0 1 1 1 1 1 2 3 2 3 2 3 4 2 1 1 1 2 3 2 2 2 2 2 2 3 3 3 3 4 3
2 2 2 1 1 1 1 1 2 2 1 1 2 1 1 2 1 1 2 1 2 3 3 3 4 3 1 2 2 2 2 2 2 1 1 2 2 2 3 3 3 4 4 3
2 2 3 3 2 1 0 0 1 1 2 3 2 1 2 2 2 2 2 2 1 2 3 3 3 2 2 2 2 2 1 1 1 1 2 2 2 2 2 3 3 4 3 2
2 2 1 1 1 2 1 0 1 1 1 1 1 1 1 2 2 2 1 0 1 4 5 4 3 2 2 2 1 1 1 1 1 1 2 2 2 2 2 2 3 3 3 2
2 2 2 2 3 2 1 1 1 1 0 1 1 1 0 1 1 1 1 2 3 4 4 3 2 2 2 2 1 1 1 1 1 1 2 2 2 2 2 2 3 3 2 2
2 2 3 3 2 2 2 1 1 1 1 1 1 1 1 1 1 1 1 2 4 3 3 2 1 1 1 1 1 1 1 1 2 2 2 2 2 2 2 2 2 2 2 2
2 2 2 2 2 3 3 2 1 1 1 1 1 0 1 1 1 1 2 3 3 3 2 1 1 1 2 1 1 1 1 1 1 1 2 2 2 2 2 2 2 2 2 2
2 2 2 2 1 2 3 3 2 1 0 1 1 1 1 2 1 1 2 2 1 2 1 2 3 3 2 0 1 1 1 1 1 1 2 2 2 2 2 2 2 2 2 2
2 2 2 2 2 3 3 3 3 1 0 1 1 1 1 1 1 1 1 2 2 1 1 3 4 3 1 0 0 1 1 1 1 1 1 1 1 1 1 1 1 2 2 2
1 1 2 2 2 1 2 2 2 2 2 2 2 2 1 1 1 1 1 1 2 1 1 3 3 2 1 0 1 1 1 1 1 1 1 1 1 1 1 1 1 1 1 1
1 1 1 1 1 2 1 0 1 1 1 2 2 2 1 1 0 0 1 1 1 1 1 1 1 1 1 1 1 1 1 1 1 1 1 1 1 1 1 1 1 1 1 1
1 1 1 2 2 1 1 0 1 1 1 1 2 2 2 1 1 1 1 1 1 1 1 1 1 1 1 1 1 1 1 1 1 1 1 1 1 1 1 1 1 1 1 0
Wind_Direction
227 231 201 218 229 203 197 193 194 228 231 246 240 231 219 192 171 165 169 172 173 176 177 171 168 170 171 171 172 172 168 179 211 227 217 211 222 243 250 247 249 246 248 261
251 241 210 242 253 225 225 207 214 237 258 257 240 205 198 193 182 184 187 187 182 179 172 169 168 165 165 170 174 160 165 189 214 231 235 231 230 227 233 241 240 237 256 272
238 288 44 259 243 217 215 219 196 221 246 249 226 212 210 204 195 195 193 191 186 184 183 180 175 169 174 180 171 161 174 203 218 233 241 236 232 230 233 239 235 247 261 269
170 111 223 242 253 189 188 236 223 234 251 224 227 236 230 203 190 192 195 193 191 185 184 184 173 163 165 166 166 170 182 202 212 232 240 236 226 231 229 226 229 248 260 267
140 192 260 284 251 178 188 265 234 219 247 247 128 33 345 244 196 195 201 196 190 185 180 175 173 164 154 168 176 183 197 215 221 224 233 226 229 240 234 230 238 247 261 265
140 175 224 241 260 204 131 271 244 194 194 175 127 146 257 253 205 180 175 168 174 159 149 161 172 161 161 179 185 205 215 222 228 218 220 221 228 235 231 231 239 248 267 266
170 209 255 259 286 113 178 239 230 196 192 175 189 211 232 221 229 191 167 170 161 153 159 169 163 158 171 185 205 217 212 211 229 231 238 231 222 223 227 224 235 246 265 284
158 190 250 281 108 185 223 252 215 209 202 197 215 239 218 198 186 165 148 144 148 151 154 156 157 159 177 207 220 204 190 206 227 237 244 239 218 221 213 209 222 251 266 289
193 217 255 271 242 260 239 236 240 229 231 191 198 231 221 207 193 180 167 155 147 146 135 133 161 163 179 216 199 187 203 228 239 242 247 243 214 216 221 218 228 246 250 266
253 269 281 288 285 282 255 246 244 226 209 187 195 204 205 211 197 178 157 156 150 142 144 161 192 190 197 202 187 188 222 246 251 246 261 260 230 214 216 226 231 236 242 255
259 278 303 295 280 281 288 277 241 218 204 206 185 206 205 203 204 194 169 163 158 164 171 182 192 219 237 191 163 181 219 244 251 243 244 251 247 228 223 229 222 223 231 231
238 241 234 262 277 282 273 265 227 192 298 269 193 192 198 202 198 183 174 168 170 179 179 187 193 223 260 237 182 182 216 245 247 246 241 237 250 285 273 236 236 225 224 226
243 253 244 264 280 276 255 272 285 206 213 217 230 181 178 178 172 159 163 170 186 190 190 192 201 237 263 250 208 203 222 245 257 249 241 238 236 241 279 301 265 243 241 242
252 235 249 264 267 282 88 80 73 70 69 84 95 111 135 126 131 154 178 188 191 176 183 191 215 263 273 261 221 218 230 244 246 243 239 240 238 240 239 248 272 287 275 252
282 230 208 203 106 73 77 83 78 63 63 61 75 115 136 139 152 195 191 142 133 152 212 210 245 276 282 245 215 226 241 251 250 248 246 245 243 243 246 247 254 268 289 287
301 78 114 109 105 93 89 98 113 131 74 94 98 135 144 156 170 211 223 143 152 216 241 237 251 265 266 226 215 231 248 254 250 241 243 251 252 250 255 254 257 259 262 264
118 110 118 108 99 108 151 183 196 215 223 226 216 192 132 104 67 349 293 248 192 225 239 231 246 264 254 218 213 230 241 258 255 250 249 255 260 257 255 254 257 261 260 250
170 171 161 160 153 134 226 237 199 216 237 247 240 190 162 168 204 248 273 295 331 312 284 261 257 261 244 233 226 229 228 236 245 255 261 261 266 262 260 263 269 273 278 271
74 94 106 125 131 122 110 83 248 234 242 222 174 206 227 214 205 226 247 278 294 287 282 272 260 249 250 258 262 229 239 261 289 290 278 271 276 276 267 267 272 273 271 269
56 63 63 54 54 61 56 33 41 40 138 139 134 119 330 270 211 206 200 239 253 262 270 270 259 250 258 265 244 211 213 233 255 275 279 276 273 277 277 272 271 276 273 268
49 49 50 52 39 19 14 36 52 24 358 63 107 158 212 259 207 184 175 273 289 288 283 274 261 265 260 251 214 213 214 222 230 243 248 260 269 273 275 276 276 277 273 268
29 35 20 22 27 2 352 8 28 18 20 32 44 88 43 342 338 296 243 245 281 302 307 307 310 301 295 251 208 224 238 242 242 245 248 251 254 259 268 277 280 277 271 263
22 29 15 0 360 357 357 359 359 355 326 256 238 240 244 258 244 223 285 296 308 318 334 333 333 327 321 293 217 235 248 257 257 251 252 256 255 254 260 267 269 266 264 259
28 28 18 11 32 42 8 335 343 357 357 318 281 253 227 250 303 277 254 303 322 323 349 340 338 332 338 57 236 250 261 270 271 268 263 267 272 271 269 272 273 268 256 247
30 40 45 40 29 340 304 323 2 7 12 8 351 337 308 214 228 284 304 310 316 330 345 343 339 338 3 304 263 257 255 253 248 245 240 240 246 256 276 283 273 268 269 265
336 307 290 265 253 262 278 319 354 332 342 346 339 337 338 334 240 266 306 312 325 333 336 335 339 328 304 281 281 272 265 269 265 246 243 245 253 263 274 279 275 258 251 242
333 325 326 327 319 297 265 241 252 292 294 287 303 321 327 336 351 345 323 318 319 318 307 304 305 281 261 262 281 291 297 295 281 260 258 269 279 279 269 261 262 273 268 245
Height
1493 1489 1489 1489 1490 1492 1496 1500 1506 1498 1496 1487 1483 1482 1481 1482 1483 1484 1485 1487 1488 1490 1492 1494 1496 1499 1500 1502 1504 1505 1506 1506 1507 1508 1508 1509 1509 1509 1509 1509 1509 1509 1509 1508
1492 1488 1487 1489 1486 1487 1489 1491 1492 1490 1489 1479 1479 1479 1480 1480 1481 1482 1483 1485 1487 1489 1491 1493 1495 1497 1499 1501 1502 1503 1504 1504 1505 1506 1505 1505 1505 1505 1505 1506 1506 1506 1506 1505
1501 1492 1489 1495 1485 1484 1484 1483 1485 1488 1483 1477 1478 1477 1477 1477 1479 1480 1482 1484 1486 1487 1489 1491 1493 1495 1496 1498 1499 1501 1501 1502 1502 1502 1502 1502 1502 1502 1502 1503 1503 1503 1503 1502
1503 1498 1505 1491 1478 1478 1481 1481 1479 1478 1477 1476 1476 1476 1476 1476 1477 1479 1480 1483 1484 1486 1487 1490 1491 1493 1495 1496 1497 1498 1499 1500 1500 1500 1500 1499 1499 1499 1499 1499 1500 1500 1500 1499
1507 1506 1498 1485 1477 1477 1480 1480 1476 1476 1475 1475 1475 1475 1475 1475 1476 1477 1479 1481 1482 1484 1486 1487 1489 1491 1493 1494 1495 1496 1496 1497 1497 1497 1496 1496 1496 1497 1497 1497 1497 1497 1497 1497
1505 1504 1504 1485 1474 1472 1477 1482 1473 1473 1473 1474 1475 1479 1476 1474 1475 1476 1478 1479 1481 1483 1484 1485 1487 1488 1490 1491 1492 1493 1494 1494 1495 1494 1494 1494 1494 1495 1495 1494 1494 1495 1494 1494
1501 1501 1492 1477 1472 1473 1486 1481 1471 1470 1470 1471 1472 1473 1473 1473 1474 1475 1476 1477 1479 1481 1482 1483 1484 1486 1487 1489 1490 1491 1491 1492 1492 1492 1491 1491 1491 1491 1492 1492 1492 1491 1491 1490
1500 1500 1493 1472 1472 1475 1474 1469 1468 1468 1469 1469 1469 1470 1470 1471 1471 1472 1474 1475 1477 1479 1480 1481 1482 1483 1485 1486 1487 1488 1489 1489 1489 1489 1489 1488 1488 1488 1488 1488 1488 1488 1487 1487
1489 1487 1475 1472 1471 1469 1469 1468 1467 1467 1468 1468 1468 1468 1468 1469 1470 1471 1472 1473 1475 1477 1478 1479 1480 1481 1482 1483 1484 1485 1486 1486 1486 1486 1486 1486 1485 1485 1485 1485 1485 1484 1484 1483
1482 1476 1472 1470 1468 1467 1467 1466 1466 1466 1466 1466 1466 1466 1466 1467 1468 1469 1470 1472 1474 1476 1476 1477 1478 1480 1481 1481 1482 1483 1483 1484 1483 1483 1483 1483 1483 1482 1482 1482 1481 1481 1480 1480
1479 1473 1470 1467 1466 1466 1465 1465 1464 1464 1464 1464 1464 1464 1465 1465 1466 1467 1469 1470 1472 1474 1475 1476 1477 1477 1478 1479 1480 1480 1481 1481 1481 1481 1481 1480 1480 1480 1479 1479 1478 1478 1477 1476
1475 1469 1469 1466 1465 1465 1464 1463 1463 1462 1462 1462 1463 1463 1463 1464 1464 1466 1467 1469 1470 1471 1472 1473 1474 1475 1476 1477 1477 1477 1477 1477 1477 1477 1477 1477 1477 1476 1476 1476 1475 1475 1474 1473
1467 1465 1465 1464 1463 1463 1462 1462 1462 1462 1461 1461 1462 1462 1462 1462 1463 1465 1466 1468 1469 1469 1470 1471 1472 1472 1473 1474 1474 1474 1474 1474 1474 1474 1474 1474 1473 1472 1472 1472 1472 1472 1471 1470
1464 1463 1462 1462 1461 1461 1461 1461 1461 1461 1461 1461 1461 1461 1462 1462 1463 1464 1464 1465 1467 1467 1468 1469 1469 1470 1470 1470 1471 1471 1471 1471 1471 1470 1471 1471 1470 1469 1469 1468 1468 1467 1468 1467
1461 1461 1461 1460 1460 1461 1460 1460 1460 1460 1460 1460 1461 1461 1461 1462 1462 1463 1464 1464 1465 1466 1466 1467 1467 1467 1468 1468 1468 1468 1468 1468 1468 1468 1468 1467 1467 1466 1465 1465 1464 1464 1463 1463
1459 1460 1459 1459 1459 1460 1460 1460 1460 1460 1460 1460 1460 1460 1460 1461 1462 1463 1463 1463 1464 1464 1464 1464 1464 1465 1465 1465 1465 1464 1465 1465 1465 1464 1464 1464 1463 1463 1462 1461 1461 1461 1460 1460
1458 1458 1458 1459 1458 1458 1459 1460 1460 1460 1459 1459 1459 1459 1459 1460 1460 1461 1462 1462 1462 1462 1462 1462 1461 1462 1462 1462 1462 1462 1462 1462 1462 1461 1461 1460 1460 1459 1459 1458 1458 1457 1457 1456
1458 1458 1458 1458 1458 1458 1458 1459 1459 1459 1458 1458 1458 1458 1458 1458 1458 1459 1460 1460 1460 1460 1460 1459 1459 1458 1458 1459 1458 1459 1459 1459 1459 1458 1458 1458 1457 1457 1456 1455 1455 1454 1453 1453
1458 1459 1459 1459 1458 1458 1458 1458 1457 1457 1457 1457 1457 1456 1456 1456 1456 1457 1458 1457 1457 1456 1456 1456 1456 1455 1455 1455 1456 1456 1456 1456 1456 1456 1455 1455 1455 1454 1453 1453 1452 1451 1450 1450
1458 1459 1458 1458 1458 1458 1457 1457 1457 1456 1456 1456 1455 1455 1455 1454 1454 1455 1455 1455 1454 1453 1452 1452 1452 1452 1452 1452 1453 1453 1453 1453 1453 1453 1453 1452 1452 1451 1451 1450 1449 1449 1448 1448
1459 1459 1459 1458 1458 1458 1458 1457 1456 1456 1455 1455 1454 1453 1453 1454 1454 1454 1453 1452 1452 1451 1450 1450 1450 1449 1450 1450 1451 1451 1451 1450 1450 1450 1449 1449 1449 1449 1448 1448 1447 1447 1446 1446
1459 1459 1459 1459 1458 1458 1457 1457 1456 1456 1455 1454 1454 1453 1453 1452 1452 1451 1451 1451 1450 1449 1449 1448 1447 1448 1448 1448 1448 1448 1448 1448 1448 1447 1447 1447 1446 1446 1446 1445 1445 1444 1444 1443
1459 1459 1459 1458 1458 1457 1457 1457 1456 1455 1455 1454 1453 1453 1452 1452 1451 1450 1449 1449 1448 1448 1447 1446 1445 1446 1446 1446 1446 1446 1446 1446 1446 1445 1445 1445 1444 1444 1443 1443 1443 1442 1442 1441
1460 1459 1459 1458 1458 1457 1457 1456 1456 1456 1455 1454 1453 1452 1452 1451 1450 1449 1448 1448 1447 1447 1446 1445 1445 1445 1445 1445 1444 1444 1444 1444 1444 1443 1443 1443 1442 1442 1441 1441 1440 1440 1440 1439
1460 1459 1459 1458 1458 1457 1457 1457 1456 1456 1455 1454 1453 1452 1451 1450 1450 1449 1448 1447 1447 1446 1445 1445 1444 1444 1444 1443 1443 1442 1442 1441 1441 1441 1441 1441 1440 1440 1440 1439 1439 1438 1438 1437
1459 1459 1459 1458 1457 1457 1457 1456 1455 1455 1454 1453 1452 1451 1450 1450 1449 1448 1447 1446 1446 1445 1444 1444 1443 1443 1442 1442 1442 1441 1441 1440 1440 1439 1439 1439 1438 1438 1438 1437 1437 1436 1436 1435
1459 1458 1458 1457 1457 1456 1456 1455 1454 1454 1453 1452 1451 1450 1449 1448 1447 1446 1446 1445 1445 1444 1443 1443 1443 1442 1442 1441 1440 1440 1439 1439 1438 1438 1437 1437 1436 1436 1436 1435 1435 1435 1434 1433